Weather History for K1P1 - February, 2013

Change the Weather History Date:

Sunday, February 17, 2013

  Actual Average (KLCI) Record (KLCI)
Temperature  
Mean Temperature 18 °F -  
Max Temperature 23 °F 33 °F - (-1)
Min Temperature 12 °F 12 °F - (-1)
Degree Days  
Heating Degree Days 48    
Moisture  
Dew Point 3 °F    
Average Humidity 56    
Maximum Humidity 72    
Minimum Humidity 41    
Precipitation  
Precipitation 0.00 in - - ()
Sea Level Pressure  
Sea Level Pressure 29.56 in    
Wind  
Wind Speed 14 mph (WNW)    
Max Wind Speed 28 mph    
Max Gust Speed 39 mph    
Visibility 10 miles    
Events      
Averages and records for this station are not official NWS values.
T = Trace of Precipitation, MM = Missing Value Source: NWS Daily Summary

Daily Weather History Graph

Daily Weather History Graph

Search for Another Location

Airport or City:

Trip Planner

Search our weather history database for the weather conditions in past years. The results will help you decide how hot, cold, wet, or windy it might be!

Date:

Astronomy

Feb. 17, 2013 Rise Set
Actual Time 6:42 AM EST 5:20 PM EST
Civil Twilight 6:13 AM EST 5:49 PM EST
Nautical Twilight 5:39 AM EST 6:23 PM EST
Astronomical Twilight 5:06 AM EST 6:56 PM EST
Moon 10:18 AM EST (2/17) 12:28 AM EST (2/17)
Length of Visible Light 11h 36m
Length of Day
10h 37m
Waxing Crescent, 49% of the Moon is Illuminated
Feb 17
Waxing Crescent
Feb 17
First Quarter
Feb 25
Full
Mar 4
Last Quarter
Mar 11
New

Hourly Weather History & Observations

Time (EST) Temp. Windchill Dew Point Humidity Pressure Visibility Wind Dir Wind Speed Gust Speed Precip Events Conditions
12:15 AM 23.5 °F 12.4 °F 3.0 °F 41% 29.76 in 10.0 mi West 11.5 mph - N/A   Unknown
12:35 AM 23.4 °F 12.8 °F 3.0 °F 42% 29.75 in 10.0 mi WNW 10.4 mph - N/A   Unknown
12:55 AM 23.4 °F 13.5 °F 2.8 °F 41% 29.75 in 10.0 mi West 9.2 mph 17.3 mph N/A   Unknown
1:15 AM 22.8 °F 12.2 °F 3.6 °F 44% 29.73 in 10.0 mi West 10.4 mph - N/A   Unknown
1:35 AM 22.5 °F 11.7 °F 3.6 °F 44% 29.71 in 10.0 mi West 10.4 mph - N/A   Unknown
2:15 AM 21.7 °F 10.8 °F 4.3 °F 47% 29.71 in 10.0 mi West 10.4 mph - N/A   Unknown
2:35 AM 21.2 °F 10.9 °F 4.3 °F 48% 29.72 in 10.0 mi WNW 9.2 mph - N/A   Unknown
2:55 AM 20.7 °F 10.2 °F 5.0 °F 51% 29.69 in 10.0 mi West 9.2 mph - N/A   Unknown
3:15 AM 20.1 °F 7.5 °F 5.4 °F 53% 29.68 in 10.0 mi West 12.7 mph 19.6 mph N/A   Unknown
3:35 AM 19.8 °F 7.1 °F 5.0 °F 53% 29.69 in 10.0 mi West 12.7 mph 18.4 mph N/A   Unknown
3:55 AM 19.4 °F 7.9 °F 5.2 °F 54% 29.69 in 10.0 mi West 10.4 mph 18.4 mph N/A   Unknown
4:15 AM 19.4 °F 7.2 °F 5.7 °F 55% 29.67 in 10.0 mi West 11.5 mph 19.6 mph N/A   Unknown
4:35 AM 19.0 °F 6.8 °F 5.7 °F 56% 29.65 in 10.0 mi West 11.5 mph 17.3 mph N/A   Unknown
4:55 AM 18.9 °F 6.5 °F 5.5 °F 56% 29.65 in 10.0 mi West 11.5 mph 17.3 mph N/A   Unknown
5:35 AM 18.3 °F 5.9 °F 5.9 °F 58% 29.62 in 10.0 mi West 11.5 mph 23.0 mph N/A   Unknown
5:55 AM 18.1 °F 4.4 °F 5.9 °F 59% 29.63 in 10.0 mi West 13.8 mph 20.7 mph N/A   Unknown
6:15 AM 17.6 °F 3.2 °F 5.9 °F 60% 29.62 in 10.0 mi West 15.0 mph 21.9 mph N/A   Unknown
6:35 AM 17.4 °F 2.4 °F 6.3 °F 62% 29.60 in 10.0 mi WNW 16.1 mph 23.0 mph N/A   Unknown
6:55 AM 17.6 °F 3.7 °F 6.6 °F 62% 29.60 in 10.0 mi West 13.8 mph 25.3 mph N/A   Unknown
7:15 AM 17.1 °F 5.0 °F 7.0 °F 65% 29.58 in 10.0 mi West 10.4 mph 23.0 mph N/A   Unknown
7:35 AM 16.7 °F 0.1 °F 6.8 °F 65% 29.56 in 10.0 mi West 19.6 mph 26.5 mph N/A   Unknown
7:55 AM 16.3 °F 0.5 °F 7.2 °F 67% 29.56 in 10.0 mi West 17.3 mph 24.2 mph N/A   Unknown
8:15 AM 16.2 °F -0.2 °F 7.5 °F 69% 29.55 in 10.0 mi WNW 18.4 mph 27.6 mph N/A   Unknown
8:55 AM 15.8 °F -1.1 °F 7.7 °F 70% 29.52 in 10.0 mi West 19.6 mph 27.6 mph N/A   Unknown
9:15 AM 15.8 °F -0.2 °F 8.1 °F 72% 29.51 in 7.0 mi West 17.3 mph 26.5 mph N/A   Unknown
9:35 AM 16.2 °F 1.3 °F 7.5 °F 69% 29.50 in 10.0 mi West 15.0 mph 24.2 mph N/A   Unknown
9:55 AM 17.4 °F 2.4 °F 7.3 °F 65% 29.49 in 10.0 mi WNW 16.1 mph 23.0 mph N/A   Unknown
10:15 AM 17.6 °F 0.5 °F 6.3 °F 61% 29.49 in 10.0 mi WNW 21.9 mph 28.8 mph N/A   Unknown
10:35 AM 17.6 °F 0.9 °F 5.5 °F 59% 29.48 in 10.0 mi WNW 20.7 mph 28.8 mph N/A   Unknown
10:55 AM 17.8 °F 1.5 °F 5.2 °F 58% 29.48 in 10.0 mi WNW 19.6 mph 35.7 mph N/A   Unknown
11:15 AM 17.8 °F 0.7 °F 4.3 °F 56% 29.47 in 10.0 mi WNW 21.9 mph 36.8 mph N/A   Unknown
11:35 AM 18.0 °F -0.2 °F 3.9 °F 54% 29.47 in 10.0 mi WNW 25.3 mph 33.4 mph N/A   Unknown
11:55 AM 18.3 °F 3.6 °F 3.0 °F 51% 29.46 in 10.0 mi WNW 16.1 mph 33.4 mph N/A   Unknown
12:15 PM 18.5 °F 0.9 °F 2.8 °F 51% 29.45 in 10.0 mi WNW 24.2 mph 34.5 mph N/A   Unknown
12:35 PM 18.5 °F 2.9 °F 1.9 °F 49% 29.45 in 10.0 mi WNW 18.4 mph 35.7 mph N/A   Unknown
12:55 PM 18.5 °F 2.0 °F 1.0 °F 47% 29.44 in 10.0 mi WNW 20.7 mph 32.2 mph N/A   Unknown
1:15 PM 18.1 °F 3.4 °F 0.9 °F 47% 29.44 in 10.0 mi WNW 16.1 mph 32.2 mph N/A   Unknown
1:55 PM 17.6 °F 0.9 °F 1.4 °F 49% 29.44 in 10.0 mi WNW 20.7 mph 32.2 mph N/A   Unknown
2:15 PM 17.4 °F -0.2 °F 1.4 °F 50% 29.44 in 10.0 mi WNW 23.0 mph 31.1 mph N/A   Unknown
2:35 PM 17.4 °F 1.5 °F 1.2 °F 49% 29.43 in 10.0 mi WNW 18.4 mph 28.8 mph N/A   Unknown
2:55 PM 17.1 °F 2.0 °F 1.4 °F 50% 29.44 in 10.0 mi WNW 16.1 mph 28.8 mph N/A   Unknown
3:15 PM 16.5 °F 1.8 °F 1.2 °F 51% 29.44 in 10.0 mi WNW 15.0 mph 24.2 mph N/A   Unknown
3:35 PM 15.8 °F -0.2 °F 1.8 °F 54% 29.44 in 10.0 mi WNW 17.3 mph 28.8 mph N/A   Unknown
4:15 PM 15.1 °F -1.1 °F 1.6 °F 55% 29.45 in 10.0 mi WNW 17.3 mph 34.5 mph N/A   Unknown
4:35 PM 14.9 °F -0.8 °F 1.6 °F 56% 29.47 in 10.0 mi WNW 16.1 mph 29.9 mph N/A   Unknown
4:55 PM 14.0 °F -3.0 °F 1.0 °F 56% 29.48 in 10.0 mi West 18.4 mph 32.2 mph N/A   Unknown
5:15 PM 13.8 °F -3.7 °F 0.5 °F 56% 29.51 in 10.0 mi WNW 19.6 mph 25.3 mph N/A   Unknown
5:35 PM 13.8 °F -0.5 °F 0.3 °F 55% 29.52 in 10.0 mi WNW 12.7 mph 24.2 mph N/A   Unknown
5:55 PM 13.8 °F -3.7 °F 0.5 °F 56% 29.53 in 10.0 mi WNW 19.6 mph 35.7 mph N/A   Unknown
6:15 PM 14.0 °F 0.5 °F 0.1 °F 54% 29.53 in 10.0 mi NW 11.5 mph 39.1 mph N/A   Unknown
6:35 PM 14.0 °F -6.2 °F 0.5 °F 55% 29.53 in 10.0 mi WNW 27.6 mph 39.1 mph N/A   Unknown
6:55 PM 14.0 °F -5.5 °F 0.7 °F 56% 29.53 in 10.0 mi WNW 25.3 mph 36.8 mph N/A   Unknown
7:15 PM 14.0 °F -1.4 °F 0.9 °F 56% 29.54 in 10.0 mi WNW 15.0 mph 36.8 mph N/A   Unknown
7:35 PM 14.0 °F -0.2 °F 1.0 °F 56% 29.54 in 10.0 mi WNW 12.7 mph 31.1 mph N/A   Unknown
8:15 PM 13.8 °F 1.8 °F 1.0 °F 57% 29.55 in 10.0 mi WNW 9.2 mph 32.2 mph N/A   Unknown
8:35 PM 13.6 °F -1.9 °F 1.2 °F 58% 29.56 in 10.0 mi NW 15.0 mph 23.0 mph N/A   Unknown
8:55 PM 13.6 °F 0.0 °F 1.0 °F 57% 29.57 in 10.0 mi NW 11.5 mph 20.7 mph N/A   Unknown
9:15 PM 13.6 °F -1.9 °F 0.9 °F 57% 29.57 in 10.0 mi WNW 15.0 mph 36.8 mph N/A   Unknown
9:35 PM 13.5 °F 0.5 °F 1.2 °F 58% 29.58 in 10.0 mi NW 10.4 mph 21.9 mph N/A   Unknown
9:55 PM 13.3 °F -1.8 °F 1.0 °F 58% 29.59 in 10.0 mi NW 13.8 mph 28.8 mph N/A   Unknown
10:15 PM 13.1 °F -3.7 °F 0.7 °F 58% 29.60 in 10.0 mi WNW 17.3 mph 32.2 mph N/A   Unknown
10:35 PM 13.1 °F -4.6 °F 0.9 °F 58% 29.61 in 10.0 mi WNW 19.6 mph 27.6 mph N/A   Unknown
11:15 PM 12.9 °F -4.4 °F 0.3 °F 57% 29.62 in 10.0 mi NW 18.4 mph 28.8 mph N/A   Unknown
11:35 PM 12.6 °F -4.4 °F -0.0 °F 57% 29.63 in 10.0 mi WNW 17.3 mph 34.5 mph N/A   Unknown
11:55 PM 12.2 °F -7.5 °F -0.2 °F 58% 29.63 in 10.0 mi WNW 24.2 mph 38.0 mph N/A   Unknown